Location: Crescent
(42.8242°N, 73.7329°W)
Time: 00:38:26
(UTC+00:00)

Transit 4A - Pass Details

Date: 16 February 2026
Orbit: 864 x 977 km, 66.8° (Epoch: 9 March)

Event Time Altitude Azimuth Distance (km) Brightness Sun altitude
Rises 19:35:07 0° 312° (NW) 3,629 11.0 25.7°
Reaches altitude 10° 19:38:45 10° 291° (WNW) 2,697 10.7 25.3°
Maximum altitude 19:42:13 15° 258° (WSW) 2,332 11.1 24.8°
Drops below altitude 10° 19:45:42 10° 224° (SW) 2,712 12.4 24.4°
Sets 19:49:24 0° 203° (SSW) 3,660 12.2 23.9°
